Fort Rucker, AL

6:42 AM CDT on August 24, 2016 (GMT -0500)
Fort Rucker / Ozark

Weather History for KLOR - June, 2013

Change the Weather History Date:

Tuesday, June 11, 2013

  Actual Average (KDHN) Record (KDHN)
Temperature  
Mean Temperature 80 °F 79 °F  
Max Temperature 91 °F 90 °F 100 °F (2007)
Min Temperature 69 °F 69 °F 60 °F (1960)
Cooling Degree Days 15 14  
Month to date cooling degree days 149  
Year to date cooling degree days 562  
Since 1 June cooling degree days 149  
Growing Degree Days 30 (Base 50)    
Moisture  
Dew Point 71 °F    
Average Humidity 82    
Maximum Humidity 100    
Minimum Humidity 45    
Precipitation  
Precipitation 0.00 in 0.20 in 1.57 in (1954)
Month to date precipitation 2.05  
Year to date precipitation 24.41  
Sea Level Pressure  
Sea Level Pressure 30.05 in    
Wind  
Wind Speed 1 mph (WNW)    
Max Wind Speed 8 mph    
Max Gust Speed -    
Visibility 7 miles    
Events Fog    
T = Trace of Precipitation, MM = Missing Value Source: NWS Daily Summary

Daily Weather History Graph

Daily Weather History Graph

Search for Another Location

Airport or City:

Trip Planner

Search our weather history database for the weather conditions in past years. The results will help you decide how hot, cold, wet, or windy it might be!

Date:

Astronomy

Jun. 11, 2013 Rise Set
Actual Time 5:37 AM CDT 7:47 PM CDT
Civil Twilight 5:10 AM CDT 8:15 PM CDT
Nautical Twilight 4:36 AM CDT 8:49 PM CDT
Astronomical Twilight 3:59 AM CDT 9:26 PM CDT
Moon 8:13 AM CDT (6/11) 9:59 PM CDT (6/11)
Length of Visible Light 15h 05m
Length of Day
14h 09m
Waxing Crescent, 8% of the Moon is Illuminated
Jun 11
Waxing Crescent
Jun 16
First Quarter
Jun 23
Full
Jun 29
Last Quarter
Jul 8
New

Hourly Weather History & Observations

Time (CDT) Temp. Heat Index Dew Point Humidity Pressure Visibility Wind Dir Wind Speed Gust Speed Precip Events Conditions
12:53 AM 70.0 °F - 69.1 °F 97% 30.05 in 6.0 mi Calm Calm - N/A   Clear
1:24 AM 69.8 °F - 69.8 °F 100% 30.06 in 1.8 mi Calm Calm - N/A   Scattered Clouds
1:31 AM 69.8 °F - 69.8 °F 100% 30.06 in 2.0 mi Calm Calm - N/A   Mostly Cloudy
1:35 AM 69.8 °F - 69.8 °F 100% 30.05 in 3.0 mi Calm Calm - N/A   Scattered Clouds
1:49 AM 69.8 °F - 69.8 °F 100% 30.06 in 5.0 mi Calm Calm - N/A   Mostly Cloudy
1:53 AM 70.0 °F - 69.1 °F 97% 30.05 in 1.8 mi Calm Calm - N/A   Mostly Cloudy
2:01 AM 69.8 °F - 69.8 °F 100% 30.05 in 0.8 mi Calm Calm - N/A   Mostly Cloudy
2:06 AM 69.8 °F - 69.8 °F 100% 30.05 in 2.5 mi Calm Calm - N/A   Mostly Cloudy
2:13 AM 69.8 °F - 68.0 °F 94% 30.05 in 6.0 mi Calm Calm - N/A   Overcast
2:53 AM 70.0 °F - 69.1 °F 97% 30.04 in 6.0 mi Calm Calm - N/A   Overcast
3:13 AM 71.6 °F - 69.8 °F 94% 30.05 in 8.0 mi Calm Calm - N/A   Overcast
3:46 AM 71.6 °F - 69.8 °F 94% 30.05 in 1.8 mi Calm Calm - N/A   Overcast
3:53 AM 71.1 °F - 70.0 °F 96% 30.04 in 0.2 mi Calm Calm - N/A Fog Fog
4:51 AM 71.6 °F - 71.6 °F 100% 30.06 in 2.5 mi West 3.5 mph - N/A   Overcast
4:53 AM 72.0 °F - 71.1 °F 97% 30.05 in 4.0 mi Calm Calm - N/A   Overcast
5:53 AM 72.0 °F - 71.1 °F 97% 30.07 in 4.0 mi Calm Calm - N/A   Overcast
6:19 AM 73.4 °F - 71.6 °F 94% 30.08 in 6.0 mi Calm Calm - N/A   Overcast
6:35 AM 73.4 °F - 73.4 °F 100% 30.09 in 6.0 mi Calm Calm - N/A   Overcast
6:53 AM 73.9 °F - 73.0 °F 97% 30.08 in 7.0 mi Calm Calm - N/A   Overcast
7:18 AM 75.2 °F - 73.4 °F 94% 30.10 in 7.0 mi Calm Calm - N/A   Overcast
7:53 AM 77.0 °F - 73.0 °F 88% 30.09 in 8.0 mi West 8.1 mph - N/A   Mostly Cloudy
8:20 AM 78.8 °F - 73.4 °F 83% 30.10 in 7.0 mi WNW 5.8 mph - N/A   Overcast
8:53 AM 79.0 °F - 73.0 °F 82% 30.09 in 7.0 mi NW 8.1 mph - N/A   Overcast
9:37 AM 80.6 °F 85.4 °F 73.4 °F 79% 30.10 in 8.0 mi West 6.9 mph - N/A   Overcast
9:53 AM 81.0 °F 85.8 °F 73.0 °F 77% 30.09 in 8.0 mi West 6.9 mph - N/A   Overcast
10:53 AM 84.0 °F 90.2 °F 73.0 °F 69% 30.08 in 10.0 mi Calm Calm - N/A   Mostly Cloudy
11:06 AM 86.0 °F 91.8 °F 71.6 °F 62% 30.09 in 10.0 mi NW 8.1 mph - N/A   Scattered Clouds
11:45 AM 86.0 °F 91.8 °F 71.6 °F 62% 30.08 in 10.0 mi NW 8.1 mph - N/A   Mostly Cloudy
11:53 AM 88.0 °F 93.8 °F 71.1 °F 57% 30.07 in 10.0 mi West 5.8 mph - N/A   Mostly Cloudy
12:53 PM 90.0 °F 95.4 °F 70.0 °F 52% 30.06 in 10.0 mi Variable 5.8 mph - N/A   Partly Cloudy
1:53 PM 90.0 °F 93.6 °F 68.0 °F 48% 30.04 in 10.0 mi Variable 3.5 mph - N/A   Partly Cloudy
2:53 PM 91.0 °F 95.2 °F 68.0 °F 47% 30.02 in 10.0 mi Calm Calm - N/A   Partly Cloudy
3:53 PM 91.9 °F 96.9 °F 69.1 °F 47% 30.01 in 10.0 mi Variable 4.6 mph - N/A   Mostly Cloudy
4:53 PM 91.9 °F 95.9 °F 68.0 °F 45% 30.00 in 10.0 mi WNW 6.9 mph - N/A   Mostly Cloudy
5:53 PM 90.0 °F 94.5 °F 69.1 °F 50% 29.99 in 10.0 mi NW 3.5 mph - N/A   Partly Cloudy
6:53 PM 88.0 °F 92.1 °F 69.1 °F 53% 30.00 in 10.0 mi Calm Calm - N/A   Clear
7:53 PM 81.0 °F 85.8 °F 73.0 °F 77% 30.00 in 10.0 mi Calm Calm - N/A   Partly Cloudy
8:53 PM 78.1 °F - 73.9 °F 87% 30.01 in 10.0 mi Calm Calm - N/A   Clear
9:53 PM 79.0 °F - 73.9 °F 84% 30.04 in 10.0 mi WSW 3.5 mph - N/A   Clear
10:53 PM 78.1 °F - 73.9 °F 87% 30.05 in 10.0 mi Calm Calm - N/A   Clear
11:53 PM 75.9 °F - 73.9 °F 94% 30.05 in 9.0 mi SSW 3.5 mph - N/A   Clear